AFR54HQ LJLJ-LFPG

Flight info

Callsign AFR54HQ
Flight time 1h 38m
Altitude 38000
Route GIMIX DCT UMVEG DCT KPT L856 RAVED Y112 HOC/N0458F370 DCT MOROK/N0459F350 DCT PENDU DCT JAVVU DCT GIVRI/N0456F380 DCT TINIL
Aircraft E190/M-SDE3GILORVW/S

Departure

Time 2026-05-08 17:59
Airport Ljubljana Jože Pučnik Airport (LJLJ)

Arrival

Time 2026-05-08 19:37
Airport Charles de Gaulle International Airport (LFPG)
Time Latitude Longitude Altitude Speed Heading
2026-05-08 17:32 46.23003 14.45468 1283 ft 0 kts 36°
2026-05-08 17:51 46.23001 14.45466 1282 ft 1 kts 36°
2026-05-08 17:51 46.22987 14.45451 1282 ft 3 kts 36°
2026-05-08 17:51 46.22970 14.45434 1282 ft 3 kts 36°
2026-05-08 17:51 46.22954 14.45416 1282 ft 3 kts 36°
2026-05-08 17:52 46.22945 14.45407 1282 ft 0 kts 36°
2026-05-08 17:54 46.22948 14.45410 1283 ft 1 kts 42°
2026-05-08 17:54 46.22950 14.45417 1283 ft 1 kts 79°
2026-05-08 17:54 46.22940 14.45427 1283 ft 3 kts 189°
2026-05-08 17:54 46.22907 14.45381 1283 ft 10 kts 217°
2026-05-08 17:55 46.22826 14.45328 1283 ft 14 kts 146°
2026-05-08 17:55 46.22757 14.45466 1283 ft 20 kts 126°
2026-05-08 17:55 46.22661 14.45656 1283 ft 26 kts 127°
2026-05-08 17:55 46.22550 14.45872 1283 ft 27 kts 126°
2026-05-08 17:56 46.22441 14.46084 1283 ft 26 kts 127°
2026-05-08 17:56 46.22331 14.46298 1283 ft 26 kts 126°
2026-05-08 17:56 46.22224 14.46508 1283 ft 26 kts 126°
2026-05-08 17:56 46.22119 14.46714 1283 ft 26 kts 126°
2026-05-08 17:57 46.22013 14.46921 1283 ft 25 kts 126°
2026-05-08 17:57 46.21908 14.47125 1283 ft 25 kts 126°
2026-05-08 17:57 46.21821 14.47296 1283 ft 17 kts 126°
2026-05-08 17:57 46.21751 14.47398 1283 ft 13 kts 175°
2026-05-08 17:58 46.21676 14.47341 1283 ft 13 kts 215°
2026-05-08 17:58 46.21616 14.47251 1283 ft 13 kts 265°
2026-05-08 17:58 46.21660 14.47145 1283 ft 14 kts 307°
2026-05-08 17:58 46.21814 14.46841 1283 ft 73 kts 307°
2026-05-08 17:59 46.22251 14.45990 1283 ft 134 kts 307°
2026-05-08 17:59 46.22893 14.44734 1351 ft 171 kts 306°
2026-05-08 17:59 46.23597 14.43337 1970 ft 172 kts 306°
2026-05-08 17:59 46.24311 14.41936 2632 ft 179 kts 306°
2026-05-08 18:00 46.25127 14.40354 2985 ft 211 kts 306°
2026-05-08 18:00 46.26994 14.36709 4647 ft 223 kts 298°
2026-05-08 18:00 46.27420 14.34597 5661 ft 227 kts 274°
2026-05-08 18:01 46.27106 14.32221 5997 ft 258 kts 243°
2026-05-08 18:01 46.25872 14.30377 6954 ft 257 kts 210°
2026-05-08 18:01 46.24168 14.29770 8040 ft 255 kts 178°
2026-05-08 18:01 46.22453 14.30373 8973 ft 256 kts 158°
2026-05-08 18:02 46.20839 14.31559 9714 ft 265 kts 149°
2026-05-08 18:02 46.19800 14.32492 10133 ft 266 kts 148°
2026-05-08 18:02 46.17605 14.34223 10979 ft 275 kts 157°
2026-05-08 18:02 46.15765 14.35132 11622 ft 286 kts 166°
2026-05-08 18:03 46.13786 14.35705 12264 ft 295 kts 171°
2026-05-08 18:03 46.11748 14.36212 12895 ft 300 kts 171°
2026-05-08 18:03 46.09651 14.36715 13481 ft 312 kts 174°
2026-05-08 18:03 46.07459 14.36400 13868 ft 326 kts 199°
2026-05-08 18:04 46.05534 14.34731 14273 ft 324 kts 224°
2026-05-08 18:04 46.04293 14.32022 14678 ft 330 kts 248°
2026-05-08 18:04 46.03968 14.28761 15086 ft 332 kts 273°
2026-05-08 18:04 46.04646 14.25585 15490 ft 339 kts 297°
2026-05-08 18:05 46.06191 14.23012 15901 ft 343 kts 319°
2026-05-08 18:05 46.08117 14.20978 16315 ft 346 kts 321°
2026-05-08 18:05 46.10025 14.18854 16722 ft 347 kts 319°
2026-05-08 18:05 46.11922 14.16682 17145 ft 349 kts 319°
2026-05-08 18:06 46.13849 14.14528 17570 ft 352 kts 320°
2026-05-08 18:06 46.15850 14.12445 17996 ft 359 kts 321°
2026-05-08 18:06 46.17869 14.10335 18422 ft 358 kts 320°
2026-05-08 18:06 46.19871 14.08165 18849 ft 361 kts 319°
2026-05-08 18:07 46.21847 14.05957 19272 ft 362 kts 318°
2026-05-08 18:07 46.23838 14.03702 19701 ft 362 kts 317°
2026-05-08 18:07 46.25826 14.01451 20127 ft 365 kts 317°
2026-05-08 18:07 46.27833 13.99180 20554 ft 367 kts 317°
2026-05-08 18:08 46.29850 13.96899 20992 ft 369 kts 317°
2026-05-08 18:08 46.31883 13.94602 21441 ft 372 kts 317°
2026-05-08 18:08 46.33924 13.92292 21892 ft 374 kts 317°
2026-05-08 18:08 46.35288 13.90749 22191 ft 376 kts 317°
2026-05-08 18:09 46.37356 13.88407 22642 ft 378 kts 317°
2026-05-08 18:09 46.39434 13.86051 23093 ft 381 kts 317°
2026-05-08 18:09 46.41523 13.83680 23544 ft 383 kts 317°
2026-05-08 18:09 46.43626 13.81290 23995 ft 385 kts 317°
2026-05-08 18:10 46.45737 13.78888 24450 ft 387 kts 317°
2026-05-08 18:10 46.47856 13.76478 24921 ft 388 kts 317°
2026-05-08 18:10 46.49985 13.74056 25396 ft 390 kts 317°
2026-05-08 18:10 46.52062 13.71526 25869 ft 387 kts 309°
2026-05-08 18:11 46.53622 13.68395 26348 ft 382 kts 295°
2026-05-08 18:11 46.54924 13.65031 26830 ft 383 kts 295°
2026-05-08 18:11 46.56221 13.61646 27306 ft 384 kts 295°
2026-05-08 18:11 46.57524 13.58239 27783 ft 385 kts 295°
2026-05-08 18:12 46.58829 13.54831 28259 ft 386 kts 295°
2026-05-08 18:12 46.60136 13.51425 28733 ft 386 kts 296°
2026-05-08 18:12 46.61447 13.48017 29208 ft 386 kts 296°
2026-05-08 18:12 46.62757 13.44617 29692 ft 385 kts 296°
2026-05-08 18:13 46.64065 13.41227 30178 ft 383 kts 296°
2026-05-08 18:13 46.65355 13.37886 30648 ft 382 kts 296°
2026-05-08 18:13 46.66666 13.34495 31126 ft 380 kts 296°
2026-05-08 18:13 46.67957 13.31153 31598 ft 377 kts 296°
2026-05-08 18:14 46.69237 13.27843 32069 ft 374 kts 296°
2026-05-08 18:14 46.70504 13.24561 32539 ft 370 kts 296°
2026-05-08 18:14 46.71741 13.21354 33004 ft 365 kts 296°
2026-05-08 18:14 46.72976 13.18150 33465 ft 360 kts 296°
2026-05-08 18:15 46.74193 13.14986 33914 ft 355 kts 296°
2026-05-08 18:15 46.75390 13.11872 34359 ft 350 kts 296°
2026-05-08 18:15 46.76565 13.08809 34803 ft 343 kts 296°
2026-05-08 18:15 46.77721 13.05793 35232 ft 337 kts 296°
2026-05-08 18:16 46.78853 13.02835 35652 ft 330 kts 296°
2026-05-08 18:16 46.79959 12.99942 36069 ft 323 kts 296°
2026-05-08 18:16 46.81046 12.97092 36304 ft 322 kts 296°
2026-05-08 18:16 46.82138 12.94225 36425 ft 323 kts 296°
2026-05-08 18:17 46.83230 12.91350 36529 ft 326 kts 296°
2026-05-08 18:17 46.84333 12.88444 36631 ft 328 kts 296°
2026-05-08 18:17 46.85439 12.85526 36732 ft 330 kts 296°
2026-05-08 18:17 46.86553 12.82587 36834 ft 332 kts 296°
2026-05-08 18:18 46.87674 12.79624 36935 ft 334 kts 296°
2026-05-08 18:18 46.88798 12.76651 37036 ft 336 kts 296°
2026-05-08 18:18 46.89932 12.73650 37137 ft 338 kts 296°
2026-05-08 18:18 46.91067 12.70643 37238 ft 339 kts 296°
2026-05-08 18:19 46.92212 12.67605 37339 ft 341 kts 296°
2026-05-08 18:19 46.93360 12.64558 37439 ft 343 kts 296°
2026-05-08 18:19 46.95678 12.58395 37599 ft 348 kts 296°
2026-05-08 18:20 46.98020 12.52152 37752 ft 353 kts 296°
2026-05-08 18:20 47.00396 12.45807 37903 ft 357 kts 296°
2026-05-08 18:21 47.02799 12.39373 37996 ft 364 kts 296°
2026-05-08 18:21 47.05256 12.32778 37999 ft 373 kts 296°
2026-05-08 18:22 47.07769 12.26016 37998 ft 382 kts 296°
2026-05-08 18:22 47.10335 12.19094 37998 ft 391 kts 296°
2026-05-08 18:23 47.12957 12.12002 37997 ft 399 kts 297°
2026-05-08 18:23 47.15633 12.04748 37996 ft 408 kts 296°
2026-05-08 18:24 47.18354 11.97353 37996 ft 415 kts 296°
2026-05-08 18:24 47.21119 11.89807 37996 ft 423 kts 296°
2026-05-08 18:25 47.23877 11.82104 37996 ft 427 kts 296°
2026-05-08 18:25 47.26614 11.74365 37994 ft 424 kts 296°
2026-05-08 18:26 47.29326 11.66667 37995 ft 423 kts 295°
2026-05-08 18:26 47.32045 11.58926 37997 ft 427 kts 295°
2026-05-08 18:27 47.34310 11.52464 37995 ft 425 kts 295°
2026-05-08 18:27 47.37467 11.43436 37997 ft 424 kts 295°
2026-05-08 18:28 47.40175 11.35664 37998 ft 427 kts 295°
2026-05-08 18:28 47.42863 11.27930 37996 ft 425 kts 295°
2026-05-08 18:29 47.45551 11.20175 38001 ft 424 kts 295°
2026-05-08 18:29 47.48242 11.12386 38020 ft 426 kts 295°
2026-05-08 18:30 47.50933 11.04575 38019 ft 426 kts 295°
2026-05-08 18:30 47.53610 10.96781 38033 ft 425 kts 295°
2026-05-08 18:31 47.56283 10.88977 38038 ft 426 kts 295°
2026-05-08 18:31 47.58955 10.81149 38030 ft 425 kts 295°
2026-05-08 18:32 47.60834 10.72945 38038 ft 421 kts 275°
2026-05-08 18:32 47.60800 10.64264 38047 ft 423 kts 266°
2026-05-08 18:33 47.60074 10.55636 38039 ft 421 kts 261°
2026-05-08 18:33 47.59213 10.47076 38043 ft 419 kts 262°
2026-05-08 18:34 47.58503 10.38486 38041 ft 421 kts 263°
2026-05-08 18:34 47.57938 10.29869 38036 ft 420 kts 265°
2026-05-08 18:35 47.57501 10.21256 38028 ft 419 kts 266°
2026-05-08 18:35 47.57142 10.12648 38019 ft 419 kts 266°
2026-05-08 18:36 47.56816 10.04038 38013 ft 419 kts 266°
2026-05-08 18:36 47.56506 9.95438 38009 ft 418 kts 266°
2026-05-08 18:37 47.56201 9.86846 38005 ft 418 kts 266°
2026-05-08 18:37 47.55897 9.78246 37999 ft 418 kts 266°
2026-05-08 18:38 47.55592 9.69657 37996 ft 418 kts 266°
2026-05-08 18:38 47.55284 9.61073 37996 ft 418 kts 266°
2026-05-08 18:39 47.54970 9.52478 37995 ft 418 kts 266°
2026-05-08 18:39 47.54652 9.43894 37994 ft 418 kts 266°
2026-05-08 18:40 47.54327 9.35306 37995 ft 418 kts 266°
2026-05-08 18:40 47.53997 9.26725 37995 ft 418 kts 266°
2026-05-08 18:41 47.53660 9.18129 37996 ft 418 kts 266°
2026-05-08 18:41 47.53318 9.09550 37999 ft 418 kts 266°
2026-05-08 18:42 47.52970 9.01006 38003 ft 419 kts 266°
2026-05-08 18:42 47.52630 8.92772 38005 ft 418 kts 266°
2026-05-08 18:43 47.52292 8.84742 38014 ft 418 kts 265°
2026-05-08 18:43 47.51924 8.76153 38017 ft 418 kts 265°
2026-05-08 18:44 47.51550 8.67571 38018 ft 417 kts 265°
2026-05-08 18:44 47.51170 8.59005 38022 ft 418 kts 265°
2026-05-08 18:45 47.50783 8.50418 38023 ft 418 kts 265°
2026-05-08 18:45 47.50391 8.41853 38023 ft 418 kts 265°
2026-05-08 18:46 47.49990 8.33262 38024 ft 419 kts 265°
2026-05-08 18:46 47.49583 8.24664 38024 ft 418 kts 265°
2026-05-08 18:47 47.49414 8.16067 38025 ft 419 kts 271°
2026-05-08 18:47 47.49760 8.07433 38025 ft 422 kts 273°
2026-05-08 18:48 47.50181 7.98885 38024 ft 419 kts 273°
2026-05-08 18:48 47.50618 7.90280 38024 ft 421 kts 273°
2026-05-08 18:49 47.51035 7.81610 38025 ft 423 kts 273°
2026-05-08 18:49 47.51315 7.72979 38023 ft 419 kts 275°
2026-05-08 18:50 47.51912 7.68750 38027 ft 421 kts 286°
2026-05-08 18:50 47.52941 7.64674 38032 ft 425 kts 291°
2026-05-08 18:50 47.54957 7.58027 38032 ft 427 kts 294°
2026-05-08 18:51 47.58044 7.48846 38025 ft 424 kts 294°
2026-05-08 18:51 47.60595 7.40963 38035 ft 425 kts 293°
2026-05-08 18:52 47.63038 7.32976 38041 ft 425 kts 292°
2026-05-08 18:52 47.65387 7.24958 38039 ft 424 kts 291°
2026-05-08 18:53 47.67677 7.16885 38041 ft 425 kts 290°
2026-05-08 18:53 47.69927 7.08778 38044 ft 424 kts 290°
2026-05-08 18:54 47.71770 7.02048 38045 ft 423 kts 290°
2026-05-08 18:54 47.73969 6.93926 38046 ft 425 kts 290°
2026-05-08 18:55 47.77242 6.81721 38048 ft 422 kts 290°
2026-05-08 18:56 47.79410 6.73577 38044 ft 425 kts 289°
2026-05-08 18:56 47.81580 6.65378 38042 ft 426 kts 289°
2026-05-08 18:57 47.83740 6.57189 38035 ft 425 kts 289°
2026-05-08 18:57 47.85892 6.48993 38029 ft 425 kts 289°
2026-05-08 18:58 47.88040 6.40778 38027 ft 425 kts 290°
2026-05-08 18:58 47.90176 6.32583 38026 ft 424 kts 289°
2026-05-08 18:59 47.92296 6.24418 38027 ft 426 kts 289°
2026-05-08 18:59 47.94429 6.16171 38026 ft 425 kts 289°
2026-05-08 19:00 47.96546 6.07958 38025 ft 424 kts 289°
2026-05-08 19:00 47.98658 5.99736 38029 ft 425 kts 289°
2026-05-08 19:01 48.00651 5.91949 38034 ft 425 kts 289°
2026-05-08 19:01 48.02756 5.83694 38036 ft 425 kts 289°
2026-05-08 19:02 48.04847 5.75463 38033 ft 424 kts 289°
2026-05-08 19:02 48.06939 5.67199 38032 ft 424 kts 289°
2026-05-08 19:03 48.09019 5.58954 38007 ft 425 kts 289°
2026-05-08 19:03 48.11095 5.50693 37858 ft 423 kts 289°
2026-05-08 19:04 48.13185 5.42339 37713 ft 434 kts 289°
2026-05-08 19:04 48.14243 5.38103 37545 ft 435 kts 289°
2026-05-08 19:04 48.15301 5.33855 37095 ft 435 kts 289°
2026-05-08 19:04 48.16352 5.29633 36607 ft 432 kts 289°
2026-05-08 19:05 48.17394 5.25442 36110 ft 428 kts 289°
2026-05-08 19:05 48.18426 5.21281 35610 ft 424 kts 289°
2026-05-08 19:05 48.19452 5.17134 35110 ft 423 kts 289°
2026-05-08 19:05 48.20476 5.12988 34601 ft 425 kts 289°
2026-05-08 19:06 48.21502 5.08823 34082 ft 427 kts 289°
2026-05-08 19:06 48.22531 5.04639 33560 ft 428 kts 289°
2026-05-08 19:06 48.23558 5.00453 33028 ft 427 kts 289°
2026-05-08 19:06 48.24581 4.96281 32482 ft 425 kts 289°
2026-05-08 19:07 48.25598 4.92122 31934 ft 424 kts 289°
2026-05-08 19:07 48.26611 4.87970 31385 ft 424 kts 289°
2026-05-08 19:07 48.27624 4.83816 30836 ft 424 kts 289°
2026-05-08 19:07 48.28633 4.79667 30289 ft 424 kts 289°
2026-05-08 19:08 48.29644 4.75501 29741 ft 424 kts 289°
2026-05-08 19:08 48.30644 4.71373 29191 ft 416 kts 289°
2026-05-08 19:08 48.31622 4.67330 28647 ft 406 kts 290°
2026-05-08 19:08 48.32574 4.63389 28116 ft 396 kts 290°
2026-05-08 19:09 48.33501 4.59543 27597 ft 387 kts 290°
2026-05-08 19:09 48.34407 4.55775 27093 ft 380 kts 290°
2026-05-08 19:09 48.35299 4.52059 26593 ft 377 kts 290°
2026-05-08 19:09 48.36186 4.48357 26094 ft 376 kts 290°
2026-05-08 19:10 48.37068 4.44672 25602 ft 372 kts 290°
2026-05-08 19:10 48.37937 4.41034 25124 ft 367 kts 290°
2026-05-08 19:10 48.38790 4.37452 24647 ft 360 kts 291°
2026-05-08 19:10 48.39626 4.33940 24171 ft 354 kts 291°
2026-05-08 19:11 48.40439 4.30523 23711 ft 349 kts 290°
2026-05-08 19:11 48.41250 4.27107 23257 ft 345 kts 290°
2026-05-08 19:11 48.42068 4.23656 22800 ft 346 kts 290°
2026-05-08 19:11 48.42880 4.20228 22348 ft 349 kts 290°
2026-05-08 19:12 48.43697 4.16777 21881 ft 350 kts 289°
2026-05-08 19:12 48.44502 4.13367 21414 ft 349 kts 289°
2026-05-08 19:12 48.45312 4.09930 20957 ft 348 kts 290°
2026-05-08 19:12 48.46129 4.06454 20493 ft 347 kts 289°
2026-05-08 19:13 48.46924 4.03069 20036 ft 348 kts 289°
2026-05-08 19:13 48.47731 3.99631 19572 ft 349 kts 289°
2026-05-08 19:13 48.48551 3.96131 19101 ft 350 kts 288°
2026-05-08 19:13 48.49355 3.92713 18640 ft 351 kts 288°
2026-05-08 19:14 48.50185 3.89201 18168 ft 352 kts 288°
2026-05-08 19:14 48.50999 3.85726 17702 ft 350 kts 288°
2026-05-08 19:14 48.51797 3.82290 17243 ft 346 kts 288°
2026-05-08 19:14 48.52588 3.78869 16787 ft 345 kts 288°
2026-05-08 19:15 48.53367 3.75486 16372 ft 345 kts 288°
2026-05-08 19:15 48.54342 3.72178 16188 ft 348 kts 299°
2026-05-08 19:15 48.55698 3.69138 16117 ft 349 kts 302°
2026-05-08 19:15 48.57038 3.66081 16076 ft 349 kts 301°
2026-05-08 19:16 48.58361 3.63013 16053 ft 349 kts 301°
2026-05-08 19:16 48.59675 3.59940 16050 ft 348 kts 301°
2026-05-08 19:16 48.60986 3.56864 16050 ft 349 kts 301°
2026-05-08 19:16 48.62304 3.53770 15992 ft 350 kts 301°
2026-05-08 19:17 48.63613 3.50696 15870 ft 347 kts 301°
2026-05-08 19:17 48.64906 3.47658 15663 ft 336 kts 301°
2026-05-08 19:17 48.66157 3.44720 15097 ft 331 kts 301°
2026-05-08 19:17 48.67371 3.41864 14531 ft 328 kts 301°
2026-05-08 19:18 48.68593 3.38985 14269 ft 327 kts 300°
2026-05-08 19:18 48.69856 3.36001 14027 ft 345 kts 301°
2026-05-08 19:18 48.71150 3.32943 13833 ft 342 kts 301°
2026-05-08 19:18 48.72427 3.29926 13678 ft 341 kts 301°
2026-05-08 19:19 48.73708 3.26898 13530 ft 342 kts 301°
2026-05-08 19:19 48.74991 3.23864 13379 ft 341 kts 301°
2026-05-08 19:19 48.76269 3.20841 13229 ft 341 kts 301°
2026-05-08 19:19 48.77544 3.17820 13133 ft 339 kts 301°
2026-05-08 19:20 48.78817 3.14801 13082 ft 340 kts 301°
2026-05-08 19:20 48.79246 3.13784 13064 ft 340 kts 301°
2026-05-08 19:20 48.81360 3.08761 13041 ft 340 kts 301°
2026-05-08 19:20 48.82630 3.05741 13039 ft 340 kts 301°
2026-05-08 19:21 48.83900 3.02721 13040 ft 340 kts 301°
2026-05-08 19:21 48.85364 2.99894 13039 ft 342 kts 311°
2026-05-08 19:21 48.86983 2.97247 13043 ft 342 kts 311°
2026-05-08 19:21 48.88593 2.94584 13047 ft 342 kts 310°
2026-05-08 19:22 48.90200 2.91916 13048 ft 342 kts 310°
2026-05-08 19:22 48.91262 2.90147 13047 ft 342 kts 310°
2026-05-08 19:22 48.92951 2.86784 13043 ft 339 kts 296°
2026-05-08 19:22 48.93661 2.83415 13048 ft 337 kts 277°
2026-05-08 19:23 48.93716 2.80348 13056 ft 337 kts 267°
2026-05-08 19:23 48.93581 2.76789 13056 ft 338 kts 265°
2026-05-08 19:23 48.93385 2.73233 13054 ft 337 kts 264°
2026-05-08 19:23 48.93168 2.69673 12879 ft 341 kts 264°
2026-05-08 19:24 48.92954 2.66250 12571 ft 340 kts 264°
2026-05-08 19:24 48.92729 2.62648 12239 ft 335 kts 264°
2026-05-08 19:24 48.92519 2.59261 11922 ft 330 kts 264°
2026-05-08 19:24 48.92311 2.55852 11599 ft 325 kts 264°
2026-05-08 19:25 48.92104 2.52442 11266 ft 315 kts 264°
2026-05-08 19:25 48.91912 2.49148 10909 ft 310 kts 264°
2026-05-08 19:25 48.91736 2.45932 10580 ft 300 kts 264°
2026-05-08 19:25 48.91555 2.42837 10247 ft 284 kts 264°
2026-05-08 19:26 48.91380 2.39888 9850 ft 280 kts 264°
2026-05-08 19:26 48.91206 2.36958 9449 ft 277 kts 263°
2026-05-08 19:26 48.91034 2.34051 9047 ft 274 kts 263°
2026-05-08 19:26 48.90864 2.31177 8647 ft 272 kts 263°
2026-05-08 19:27 48.90695 2.28320 8247 ft 271 kts 263°
2026-05-08 19:27 48.90527 2.25467 7847 ft 270 kts 263°
2026-05-08 19:27 48.90359 2.22621 7447 ft 270 kts 263°
2026-05-08 19:27 48.90191 2.19782 7031 ft 270 kts 263°
2026-05-08 19:28 48.90023 2.16940 6605 ft 269 kts 263°
2026-05-08 19:28 48.89856 2.14114 6180 ft 268 kts 263°
2026-05-08 19:28 48.89696 2.11392 5809 ft 251 kts 263°
2026-05-08 19:28 48.89542 2.08735 5455 ft 250 kts 263°
2026-05-08 19:29 48.89393 2.06148 5266 ft 242 kts 263°
2026-05-08 19:29 48.89334 2.03651 5158 ft 233 kts 277°
2026-05-08 19:29 48.90041 2.01504 5099 ft 232 kts 313°
2026-05-08 19:29 48.91482 2.00303 5075 ft 244 kts 343°
2026-05-08 19:30 48.93152 1.99900 5059 ft 242 kts 354°
2026-05-08 19:30 48.94840 1.99974 5047 ft 245 kts 14°
2026-05-08 19:30 48.96286 2.01289 5053 ft 246 kts 49°
2026-05-08 19:30 48.97082 2.03565 5062 ft 245 kts 74°
2026-05-08 19:31 48.97395 2.06065 5057 ft 243 kts 86°
2026-05-08 19:31 48.97474 2.08657 5055 ft 242 kts 91°
2026-05-08 19:31 48.97458 2.11226 5054 ft 242 kts 93°
2026-05-08 19:31 48.97424 2.13787 5054 ft 242 kts 93°
2026-05-08 19:32 48.97410 2.16316 5054 ft 242 kts 92°
2026-05-08 19:32 48.97430 2.18883 5063 ft 242 kts 90°
2026-05-08 19:32 48.97486 2.21464 4926 ft 245 kts 89°
2026-05-08 19:32 48.97573 2.24060 4629 ft 246 kts 88°
2026-05-08 19:33 48.97687 2.26662 4253 ft 248 kts 88°
2026-05-08 19:33 48.97818 2.29285 3884 ft 249 kts 87°
2026-05-08 19:33 48.97960 2.31918 3550 ft 249 kts 87°
2026-05-08 19:33 48.98102 2.34448 3216 ft 229 kts 86°
2026-05-08 19:34 48.98233 2.36763 2909 ft 210 kts 86°
2026-05-08 19:34 48.98352 2.38884 2681 ft 193 kts 86°
2026-05-08 19:34 48.98456 2.40850 2417 ft 181 kts 85°
2026-05-08 19:34 48.98555 2.42706 2179 ft 171 kts 84°
2026-05-08 19:35 48.98647 2.44456 1957 ft 162 kts 84°
2026-05-08 19:35 48.98736 2.46125 1748 ft 155 kts 85°
2026-05-08 19:35 48.98822 2.47742 1567 ft 150 kts 85°
2026-05-08 19:35 48.98904 2.49278 1392 ft 141 kts 85°
2026-05-08 19:36 48.98982 2.50728 1197 ft 134 kts 84°
2026-05-08 19:36 48.99056 2.52125 993 ft 132 kts 84°
2026-05-08 19:36 48.99142 2.53550 832 ft 137 kts 83°
2026-05-08 19:36 48.99217 2.54989 640 ft 136 kts 85°
2026-05-08 19:37 48.99287 2.56408 471 ft 133 kts 83°
2026-05-08 19:37 48.99369 2.57811 402 ft 125 kts 83°
2026-05-08 19:37 48.99419 2.58833 402 ft 68 kts 84°
2026-05-08 19:37 48.99477 2.59267 402 ft 33 kts 62°
2026-05-08 19:38 48.99573 2.59566 402 ft 19 kts 63°
2026-05-08 19:38 48.99603 2.59646 402 ft 10 kts 44°
2026-05-08 19:38 48.99673 2.59675 402 ft 12 kts 355°
2026-05-08 19:38 48.99764 2.59664 402 ft 14 kts 355°
2026-05-08 19:39 48.99831 2.59656 402 ft 15 kts 355°
2026-05-08 19:39 48.99917 2.59642 402 ft 6 kts 354°
2026-05-08 19:39 48.99923 2.59641 402 ft 0 kts 354°
2026-05-08 19:40 48.99930 2.59640 402 ft 2 kts 354°
2026-05-08 19:40 48.99956 2.59637 402 ft 5 kts 354°
2026-05-08 19:40 49.00047 2.59625 402 ft 13 kts 355°
2026-05-08 19:40 49.00137 2.59613 402 ft 14 kts 355°
2026-05-08 19:41 49.00224 2.59603 402 ft 10 kts 356°
2026-05-08 19:41 49.00268 2.59599 402 ft 4 kts 358°
2026-05-08 19:41 49.00309 2.59616 402 ft 5 kts 46°
2026-05-08 19:41 49.00319 2.59692 402 ft 6 kts 85°
2026-05-08 19:42 49.00323 2.59766 402 ft 5 kts 85°
2026-05-08 19:42 49.00325 2.59807 402 ft 0 kts 85°
2026-05-08 19:43 49.00326 2.59807 402 ft 0 kts 85°
2026-05-08 19:43 49.00326 2.59808 402 ft 0 kts 85°
2026-05-08 19:44 49.00326 2.59809 402 ft 1 kts 85°
2026-05-08 19:44 49.00327 2.59830 402 ft 3 kts 85°
2026-05-08 19:45 49.00331 2.59879 402 ft 6 kts 74°
2026-05-08 19:45 49.00361 2.59914 402 ft 6 kts 353°
2026-05-08 19:45 49.00408 2.59912 402 ft 5 kts 33°
2026-05-08 19:45 49.00411 2.59937 402 ft 0 kts 87°
2026-05-08 19:46 49.00412 2.59962 402 ft 2 kts 86°
2026-05-08 19:46 49.00413 2.59976 402 ft 0 kts 86°